2015-11-14 00:02:49 r, 17.54m,0000000009Hz,0000053825c,0000000.117s, 019.9C,00002195
2015-11-14 00:12:48 r, 18.41m,0000000004Hz,0000120246c,0000000.261s, 019.9C,00002195
2015-11-14 00:22:49 r, 18.37m,0000000004Hz,0000116166c,0000000.252s, 019.9C,00002195
2015-11-14 00:32:49 r, 17.55m,0000000009Hz,0000054700c,0000000.119s, 019.6C,00002195
2015-11-14 00:42:48 r, 17.22m,0000000011Hz,0000040307c,0000000.087s, 019.6C,00002195
2015-11-14 00:52:48 r, 16.78m,0000000017Hz,0000026964c,0000000.059s, 019.6C,00002195
2015-11-14 01:02:51 r, 17.06m,0000000013Hz,0000034660c,0000000.075s, 019.6C,00002195
2015-11-14 01:12:48 r, 16.78m,0000000018Hz,0000026799c,0000000.058s, 019.6C,00002195
2015-11-14 01:22:49 r, 16.96m,0000000015Hz,0000031837c,0000000.069s, 019.6C,00002195
2015-11-14 01:32:48 r, 17.73m,0000000007Hz,0000064315c,0000000.140s, 019.6C,00002195
2015-11-14 01:42:48 r, 17.92m,0000000006Hz,0000077237c,0000000.168s, 019.6C,00002195
2015-11-14 01:52:51 r, 17.49m,0000000009Hz,0000051899c,0000000.113s, 019.6C,00002195
2015-11-14 02:02:49 r, 18.19m,0000000004Hz,0000098804c,0000000.214s, 019.6C,00002195
2015-11-14 02:12:48 r, 17.93m,0000000006Hz,0000077749c,0000000.169s, 019.6C,00002195
2015-11-14 02:22:51 r, 18.15m,0000000005Hz,0000094226c,0000000.204s, 019.6C,00002195
2015-11-14 02:32:48 r, 17.65m,0000000008Hz,0000059516c,0000000.129s, 019.3C,00002195
2015-11-14 02:42:48 r, 17.30m,0000000011Hz,0000043333c,0000000.094s, 019.3C,00002195
2015-11-14 02:52:48 r, 17.76m,0000000007Hz,0000066135c,0000000.144s, 019.3C,00002195
2015-11-14 03:02:51 r, 17.48m,0000000009Hz,0000050948c,0000000.111s, 019.3C,00002195
2015-11-14 03:12:48 r, 17.65m,0000000008Hz,0000059506c,0000000.129s, 019.3C,00002195
2015-11-14 03:22:49 r, 17.80m,0000000007Hz,0000069069c,0000000.150s, 019.3C,00002195
2015-11-14 03:32:48 r, 17.76m,0000000007Hz,0000066127c,0000000.144s, 019.6C,00002195
2015-11-14 03:42:48 r, 17.86m,0000000006Hz,0000072890c,0000000.158s, 019.6C,00002195
2015-11-14 03:52:51 r, 17.94m,0000000006Hz,0000078704c,0000000.171s, 019.6C,00002195
2015-11-14 04:02:49 r, 18.00m,0000000005Hz,0000082752c,0000000.180s, 019.6C,00002195
2015-11-14 04:12:49 r, 17.57m,0000000008Hz,0000055558c,0000000.121s, 019.6C,00002195
2015-11-14 04:22:48 r, 16.94m,0000000014Hz,0000030991c,0000000.067s, 019.6C,00002195
2015-11-14 04:32:48 r, 16.96m,0000000014Hz,0000031565c,0000000.069s, 019.9C,00002195
2015-11-14 04:42:48 r, 17.25m,0000000011Hz,0000041659c,0000000.090s, 019.9C,00002195
2015-11-14 04:52:49 r, 17.19m,0000000012Hz,0000039370c,0000000.085s, 020.3C,00002195
2015-11-14 05:02:50 r, 17.27m,0000000011Hz,0000042403c,0000000.092s, 020.3C,00002195
2015-11-14 05:12:48 r, 17.35m,0000000010Hz,0000045143c,0000000.098s, 020.3C,00002195
2015-11-14 05:22:48 r, 17.46m,0000000010Hz,0000049988c,0000000.108s, 019.9C,00002195
2015-11-14 05:32:48 r, 17.49m,0000000009Hz,0000051780c,0000000.112s, 020.3C,00002195
2015-11-14 05:42:48 r, 17.16m,0000000012Hz,0000038326c,0000000.083s, 020.3C,00002195
2015-11-14 05:52:49 r, 17.65m,0000000008Hz,0000059456c,0000000.129s, 020.3C,00002195
2015-11-14 06:02:48 r, 17.24m,0000000012Hz,0000041189c,0000000.089s, 020.3C,00002195
2015-11-14 06:12:49 r, 17.38m,0000000010Hz,0000046736c,0000000.101s, 020.3C,00002195
2015-11-14 06:22:49 r, 18.06m,0000000006Hz,0000087223c,0000000.189s, 020.6C,00002195
2015-11-14 06:32:49 r, 17.71m,0000000007Hz,0000063407c,0000000.138s, 020.6C,00002195
2015-11-14 06:42:48 r, 17.03m,0000000013Hz,0000033940c,0000000.074s, 020.3C,00002195
2015-11-14 06:52:51 r, 15.52m,0000000054Hz,0000008442c,0000000.018s, 020.3C,00002195
2015-11-14 07:02:49 r, 13.58m,0000000328Hz,0000000000c,0000000.000s, 019.6C,00002195
2015-11-14 07:12:48 r, 11.54m,0000002146Hz,0000000000c,0000000.000s, 019.6C,00002195
2015-11-14 07:22:50 r, 09.58m,0000013061Hz,0000000000c,0000000.000s, 019.6C,00002195
2015-11-14 07:32:49 r, 08.43m,0000037821Hz,0000000000c,0000000.000s, 019.6C,00002195
2015-11-14 07:42:48 r, 07.64m,0000078739Hz,0000000000c,0000000.000s, 019.9C,00002195
2015-11-14 07:52:49 r, 06.94m,0000150473Hz,0000000000c,0000000.000s, 019.6C,00002195
2015-11-14 08:02:48 r, 06.39m,0000247431Hz,0000000000c,0000000.000s, 019.9C,00002195
2015-11-14 08:12:48 r, 00.00m,0000418632Hz,0000000000c,0000000.000s, 019.9C,00002195
2015-11-14 08:22:51 r, 00.00m,0000563250Hz,0000000000c,0000000.000s, 020.3C,00002195
2015-11-14 08:32:49 r, 00.00m,0000563278Hz,0000000000c,0000000.000s, 020.6C,00002195
2015-11-14 08:42:48 r, 00.00m,0000563372Hz,0000000000c,0000000.000s, 021.2C,00002195
2015-11-14 08:52:48 r, 00.00m,0000563445Hz,0000000000c,0000000.000s, 022.2C,00002195
2015-11-14 09:02:48 r, 00.00m,0000563593Hz,0000000000c,0000000.000s, 022.8C,00002195
2015-11-14 09:12:48 r, 00.00m,0000563662Hz,0000000000c,0000000.000s, 022.8C,00002195
2015-11-14 09:22:49 r, 00.00m,0000563581Hz,0000000000c,0000000.000s, 023.2C,00002195
2015-11-14 09:32:50 r, 00.00m,0000563599Hz,0000000000c,0000000.000s, 023.2C,00002195
2015-11-14 09:42:48 r, 00.00m,0000563554Hz,0000000000c,0000000.000s, 023.2C,00002195
2015-11-14 09:52:50 r, 00.00m,0000563577Hz,0000000000c,0000000.000s, 023.2C,00002195
2015-11-14 10:02:48 r, 00.00m,0000563675Hz,0000000000c,0000000.000s, 023.5C,00002195
2015-11-14 10:12:48 r, 00.00m,0000563747Hz,0000000000c,0000000.000s, 023.5C,00002195
2015-11-14 10:22:48 r, 00.00m,0000563832Hz,0000000000c,0000000.000s, 024.4C,00002195
2015-11-14 10:32:49 r, 00.00m,0000563979Hz,0000000000c,0000000.000s, 026.1C,00002195
2015-11-14 10:42:48 r, 00.00m,0000564153Hz,0000000000c,0000000.000s, 027.7C,00002195
2015-11-14 10:52:48 r, 00.00m,0000564220Hz,0000000000c,0000000.000s, 028.6C,00002195
2015-11-14 11:02:49 r, 00.00m,0000564363Hz,0000000000c,0000000.000s, 029.6C,00002195
2015-11-14 11:12:48 r, 00.00m,0000564409Hz,0000000000c,0000000.000s, 030.2C,00002195
2015-11-14 11:22:48 r, 00.00m,0000564450Hz,0000000000c,0000000.000s, 030.6C,00002195
2015-11-14 11:32:49 r, 00.00m,0000564364Hz,0000000000c,0000000.000s, 030.6C,00002195
2015-11-14 11:42:48 r, 00.00m,0000564372Hz,0000000000c,0000000.000s, 030.6C,00002195
2015-11-14 11:52:48 r, 00.00m,0000564339Hz,0000000000c,0000000.000s, 030.2C,00002195
2015-11-14 12:02:49 r, 00.00m,0000564445Hz,0000000000c,0000000.000s, 030.6C,00002195
2015-11-14 12:12:48 r, 00.00m,0000564459Hz,0000000000c,0000000.000s, 030.9C,00002195
2015-11-14 12:22:49 r, 00.00m,0000564510Hz,0000000000c,0000000.000s, 030.9C,00002195
2015-11-14 12:32:51 r, 00.00m,0000564481Hz,0000000000c,0000000.000s, 030.9C,00002195
2015-11-14 12:42:48 r, 00.00m,0000564487Hz,0000000000c,0000000.000s, 031.2C,00002195
2015-11-14 12:52:49 r, 00.00m,0000564430Hz,0000000000c,0000000.000s, 031.5C,00002195
2015-11-14 13:02:49 r, 00.00m,0000564415Hz,0000000000c,0000000.000s, 031.9C,00002195
2015-11-14 13:12:49 r, 00.00m,0000564294Hz,0000000000c,0000000.000s, 030.9C,00002195
2015-11-14 13:22:51 r, 00.00m,0000564278Hz,0000000000c,0000000.000s, 030.6C,00002195
2015-11-14 13:32:49 r, 00.00m,0000564282Hz,0000000000c,0000000.000s, 030.2C,00002195
2015-11-14 13:42:49 r, 00.00m,0000564294Hz,0000000000c,0000000.000s, 029.9C,00002195
2015-11-14 13:52:49 r, 00.00m,0000564367Hz,0000000000c,0000000.000s, 030.6C,00002195
2015-11-14 14:02:49 r, 00.00m,0000564429Hz,0000000000c,0000000.000s, 031.2C,00002195
2015-11-14 14:12:49 r, 00.00m,0000564367Hz,0000000000c,0000000.000s, 030.9C,00002195
2015-11-14 14:22:50 r, 00.00m,0000564333Hz,0000000000c,0000000.000s, 030.6C,00002195
2015-11-14 14:32:49 r, 00.00m,0000564327Hz,0000000000c,0000000.000s, 030.2C,00002195
2015-11-14 14:42:49 r, 00.00m,0000564261Hz,0000000000c,0000000.000s, 029.6C,00002195
2015-11-14 14:52:50 r, 00.00m,0000564174Hz,0000000000c,0000000.000s, 029.0C,00002195
2015-11-14 15:02:49 r, 00.00m,0000564170Hz,0000000000c,0000000.000s, 028.3C,00002195
2015-11-14 15:12:49 r, 00.00m,0000563998Hz,0000000000c,0000000.000s, 027.7C,00002195
2015-11-14 15:22:49 r, 00.00m,0000563959Hz,0000000000c,0000000.000s, 027.3C,00002195
2015-11-14 15:32:49 r, 00.00m,0000563932Hz,0000000000c,0000000.000s, 027.3C,00002195
2015-11-14 15:42:49 r, 00.00m,0000563897Hz,0000000000c,0000000.000s, 027.0C,00002195
2015-11-14 15:52:49 r, 00.00m,0000563987Hz,0000000000c,0000000.000s, 027.0C,00002195
2015-11-14 16:02:49 r, 00.00m,0000536300Hz,0000000000c,0000000.000s, 026.7C,00002195
2015-11-14 16:12:49 r, 05.94m,0000373828Hz,0000000000c,0000000.000s, 026.4C,00002195
2015-11-14 16:22:49 r, 06.18m,0000300203Hz,0000000000c,0000000.000s, 026.1C,00002195
2015-11-14 16:32:49 r, 06.52m,0000220004Hz,0000000000c,0000000.000s, 025.7C,00002195
2015-11-14 16:42:51 r, 07.44m,0000094227Hz,0000000000c,0000000.000s, 025.4C,00002195
2015-11-14 16:52:49 r, 08.46m,0000036718Hz,0000000000c,0000000.000s, 025.1C,00002195
2015-11-14 17:02:49 r, 09.83m,0000010406Hz,0000000000c,0000000.000s, 024.8C,00002195
2015-11-14 17:12:49 r, 11.64m,0000001970Hz,0000000000c,0000000.000s, 024.4C,00002195
2015-11-14 17:22:49 r, 13.69m,0000000297Hz,0000000000c,0000000.000s, 024.1C,00002195
2015-11-14 17:32:49 r, 15.69m,0000000047Hz,0000009871c,0000000.021s, 023.8C,00002195
2015-11-14 17:42:49 r, 17.16m,0000000012Hz,0000038372c,0000000.083s, 023.8C,00002195
2015-11-14 17:52:49 r, 17.95m,0000000006Hz,0000079090c,0000000.172s, 023.5C,00002195
2015-11-14 18:02:49 r, 18.21m,0000000004Hz,0000099787c,0000000.217s, 023.2C,00002195
2015-11-14 18:12:49 r, 18.16m,0000000004Hz,0000096034c,0000000.208s, 023.2C,00002195
2015-11-14 18:22:49 r, 17.91m,0000000006Hz,0000075900c,0000000.165s, 023.2C,00002195
2015-11-14 18:32:50 r, 18.25m,0000000005Hz,0000102692c,0000000.223s, 023.2C,00002195
2015-11-14 18:42:49 r, 18.20m,0000000005Hz,0000098020c,0000000.213s, 022.8C,00002195
2015-11-14 18:52:49 r, 18.37m,0000000004Hz,0000115169c,0000000.250s, 022.8C,00002195
2015-11-14 19:02:49 r, 18.38m,0000000004Hz,0000116090c,0000000.252s, 022.5C,00002195
2015-11-14 19:12:49 r, 18.36m,0000000004Hz,0000114288c,0000000.248s, 022.2C,00002195
2015-11-14 19:22:50 r, 18.37m,0000000004Hz,0000115262c,0000000.250s, 022.2C,00002195
2015-11-14 19:32:49 r, 18.16m,0000000005Hz,0000095092c,0000000.206s, 021.9C,00002195
2015-11-14 19:42:50 r, 17.54m,0000000008Hz,0000053707c,0000000.117s, 021.9C,00002195
2015-11-14 19:52:49 r, 16.67m,0000000019Hz,0000024303c,0000000.053s, 021.9C,00002195
2015-11-14 20:02:49 r, 16.45m,0000000024Hz,0000019926c,0000000.043s, 021.9C,00002195
2015-11-14 20:12:49 r, 16.62m,0000000019Hz,0000023285c,0000000.051s, 021.9C,00002195
2015-11-14 20:22:49 r, 16.42m,0000000024Hz,0000019232c,0000000.042s, 022.2C,00002195
2015-11-14 20:32:50 r, 16.27m,0000000028Hz,0000016793c,0000000.036s, 022.2C,00002195
2015-11-14 20:42:49 r, 16.25m,0000000028Hz,0000016515c,0000000.036s, 022.2C,00002195
2015-11-14 20:52:49 r, 16.27m,0000000028Hz,0000016791c,0000000.036s, 022.2C,00002195
2015-11-14 21:02:49 r, 16.50m,0000000023Hz,0000020766c,0000000.045s, 022.2C,00002195
2015-11-14 21:12:51 r, 16.26m,0000000028Hz,0000016766c,0000000.036s, 022.2C,00002195
2015-11-14 21:22:49 r, 16.07m,0000000033Hz,0000014008c,0000000.030s, 022.2C,00002195
2015-11-14 21:32:49 r, 16.09m,0000000033Hz,0000014205c,0000000.031s, 022.2C,00002195
2015-11-14 21:42:49 r, 16.09m,0000000032Hz,0000014168c,0000000.031s, 022.2C,00002195
2015-11-14 21:52:49 r, 15.97m,0000000035Hz,0000012768c,0000000.028s, 022.5C,00002195
2015-11-14 22:02:49 r, 15.94m,0000000037Hz,0000012360c,0000000.027s, 022.5C,00002195
2015-11-14 22:12:49 r, 15.94m,0000000038Hz,0000012321c,0000000.027s, 022.5C,00002195
2015-11-14 22:22:49 r, 15.99m,0000000035Hz,0000013046c,0000000.028s, 022.5C,00002195
2015-11-14 22:32:50 r, 16.08m,0000000032Hz,0000014060c,0000000.031s, 022.5C,00002195
2015-11-14 22:42:49 r, 16.25m,0000000028Hz,0000016548c,0000000.036s, 022.5C,00002195
2015-11-14 22:52:49 r, 16.19m,0000000029Hz,0000015593c,0000000.034s, 022.8C,00002195
2015-11-14 23:02:49 r, 16.22m,0000000028Hz,0000016058c,0000000.035s, 022.8C,00002195
2015-11-14 23:12:51 r, 16.40m,0000000025Hz,0000019048c,0000000.041s, 022.8C,00002195
2015-11-14 23:22:49 r, 16.48m,0000000022Hz,0000020378c,0000000.044s, 023.2C,00002195
2015-11-14 23:32:49 r, 16.72m,0000000019Hz,0000025233c,0000000.055s, 023.2C,00002195
2015-11-14 23:42:50 r, 16.44m,0000000024Hz,0000019760c,0000000.043s, 023.2C,00002195
2015-11-14 23:52:49 r, 16.42m,0000000023Hz,0000019428c,0000000.042s, 022.8C,00002195
